Flag for Colombia Weather past 2 weeks in Cali, Colombia

Now
84 °F

Scattered showers. Broken clouds.


Feels Like: 87 °F
Forecast: 72 / 85 °F
Wind: 12 mph from Northwest

Location: Cali / Alfonso Bonillaaragon

Current Time: Jul 5, 2015 at 2:35:38 PM

Latest Report: Jul 5, 2015 at 2:00 PM


Visibility: N/A

Pressure: 28.83 "Hg (25.88 "Hg at 955m altitude)

Humidity: 55%

Dew point: 66 °F

Location of CaliLocation

Historic Weather in Cali — Graph

°F

Cali temperature yesterday

Maximum temperature yesterday: 88 °F (at 2:00 PM)
Minimum temperature yesterday: 68 °F (at 5:00 AM)
Average temperature yesterday: 77 °F

Past Weeks' High & Low Weather Summary

 TemperatureHumidityPressure
High95 °F (Jun 24, 3:00 PM)100% (Jun 22, 1:00 AM)30.04 "Hg (Jun 22, 1:00 AM)
Low63 °F (Jul 1, 6:00 AM)28% (Jun 24, 3:00 PM)29.77 "Hg (Jul 3, 4:00 PM)
Average77 °F70%29.93 "Hg
* Reported Jun 20 1:00 PM — Jul 5 1:00 PM, Cali, Weather by CustomWeather, © 2015

Note: Actual official high and low records may vary slightly from our data, if they occured in-between our weather recording intervals... More about our weather records

Advertising

Cali weather history for previous 24 hours

 ConditionsComfort  
Time TempWeatherWind HumidityBarometerVisibility
1:00 PM
Sun, Jul 5
84 °FPartly sunny.3 mph55%29.95 "HgN/A
12:00 PM82 °FPartly sunny.3 mph58%29.97 "HgN/A
11:00 AM81 °FBroken clouds.5 mph62%29.99 "HgN/A
10:00 AM79 °FPartly sunny.6 mph65%29.99 "HgN/A
9:00 AM77 °FPartly sunny.2 mph69%29.98 "HgN/A
8:00 AM73 °FScattered showers. Partly sunny.5 mph83%29.99 "HgN/A
7:00 AM72 °FScattered clouds.3 mph88%29.96 "HgN/A
6:00 AM70 °FScattered clouds.No wind88%29.94 "HgN/A
5:00 AM70 °FPassing clouds.No wind88%29.93 "HgN/A
4:00 AM70 °FPassing clouds.5 mph88%29.92 "HgN/A
3:00 AM72 °FPartly cloudy.3 mph83%29.91 "HgN/A
2:00 AM72 °FPassing clouds.3 mph83%29.92 "HgN/A
1:00 AM72 °FPassing clouds.5 mph83%29.93 "HgN/A
12:00 AM73 °FPassing clouds.3 mph78%29.93 "HgN/A
11:00 PM
Sat, Jul 4
72 °FPassing clouds.3 mph83%29.92 "HgN/A
10:00 PM73 °FPassing clouds.7 mph78%29.91 "HgN/A
9:00 PM73 °FPassing clouds.8 mph78%29.89 "HgN/A
8:00 PM77 °FPassing clouds.12 mph69%29.86 "HgN/A
7:00 PM79 °FPassing clouds.8 mph65%29.85 "HgN/A
6:00 PM82 °FBroken clouds.8 mph58%29.83 "HgN/A
5:00 PM88 °FPartly sunny.12 mph49%29.81 "HgN/A
4:00 PM88 °FPartly sunny.9 mph49%29.82 "HgN/A
3:00 PM88 °FPartly sunny.7 mph52%29.83 "HgN/A
2:00 PM88 °FPartly sunny.5 mph52%29.86 "HgN/A
Weather by CustomWeather, © 2015

See weather overviewHow to use our weather pages